Terminal Aerodrome Forecast
Issued by NWS Albany, NY

Current Version | Previous Version | Text Only | Print | Product List | Glossary On
Versions: 1 2 3 4 5 6 7 8 9 10 11 12 13 14 15 16
000 FTUS41 KALY 302330 TAFALB TAF KALB 302330Z 3100/3124 VRB03KT P6SM VCSH SCT050 OVC100 FM311000 VRB02KT 6SM -RA BR BKN025 OVC050 FM311200 VRB04KT 2SM RA BR OVC007 FM311500 09005KT 2SM -RA BR OVC015=

USA.gov is the U.S. government's official web portal to all federal, state and local government web resources and services.